Flag for Angola Weather past 2 weeks in Huambo, Angola

Now
79 °F

Partly cloudy.


Feels Like: 82 °F
Forecast: 60 / 72 °F
Wind: 7 mph from Southeast

Location: Luanda Airport

Current Time: Jan 31, 2015 at 6:57:35 AM

Latest Report: Jan 31, 2015 at 6:00 AM


Visibility: N/A

Pressure: 29.89 "Hg

Humidity: 79%

Dew point: 72 °F

Location of HuamboLocation

Historic Weather in Huambo — Graph

°F

Huambo temperature yesterday

Maximum temperature yesterday: 90 °F (at 10:00 AM)
Minimum temperature yesterday: 77 °F (at 6:00 AM)
Average temperature yesterday: 83 °F

Past Weeks' High & Low Weather Summary

 TemperatureHumidityPressure
High90 °F (Jan 20, 3:00 PM)94% (Jan 19, 8:00 AM)30.15 "Hg (Jan 19, 8:00 AM)
Low61 °F (Jan 19, 8:00 AM)49% (Jan 20, 11:00 AM)29.77 "Hg (Jan 24, 5:00 PM)
Average82 °F73%29.88 "Hg
* Reported Jan 16 11:00 AM — Jan 31 5:00 AM, Huambo, Weather by CustomWeather, © 2014

Note: Actual official high and low records may vary slightly from our data, if they occured in-between our weather recording intervals... More about our weather records

Advertising

Huambo weather history for previous 24 hours

 ConditionsComfort  
Time TempWeatherWind HumidityBarometerVisibility
5:00 AM
Jan 31
79 °FPassing clouds.6 mph84%29.86 "HgN/A
4:00 AM79 °FPassing clouds.6 mph84%29.86 "HgN/A
3:00 AM79 °FPassing clouds.6 mph84%29.89 "HgN/A
2:00 AM79 °FPassing clouds.7 mph84%29.89 "HgN/A
1:00 AM79 °FPartly cloudy.6 mph84%29.89 "HgN/A
12:00 AM81 °FPassing clouds.6 mph79%29.89 "HgN/A
11:00 PM
Jan 30
81 °FPartly cloudy.7 mph79%29.89 "HgN/A
10:00 PM81 °FPassing clouds.8 mph79%29.89 "HgN/A
9:00 PM81 °FPassing clouds.7 mph79%29.86 "HgN/A
8:00 PM81 °FPassing clouds.8 mph79%29.83 "HgN/A
6:00 PM84 °FScattered clouds.9 mph70%29.80 "HgN/A
5:00 PM86 °FPassing clouds.12 mph62%29.80 "HgN/A
4:00 PM88 °FPassing clouds.14 mph59%29.80 "HgN/A
3:00 PM88 °FPassing clouds.14 mph55%29.83 "HgN/A
1:00 PM88 °FScattered clouds.12 mph62%29.86 "HgN/A
12:00 PM88 °FScattered clouds.9 mph59%29.89 "HgN/A
11:00 AM90 °FScattered clouds.7 mph52%29.89 "HgN/A
10:00 AM90 °FScattered clouds.3 mph55%29.89 "HgN/A
9:00 AM84 °FPartly sunny.3 mph70%29.89 "HgN/A
8:00 AM81 °FPartly sunny.6 mph79%29.89 "HgN/A
7:00 AM79 °FScattered clouds.5 mph84%29.86 "HgN/A
6:00 AM77 °FPassing clouds.6 mph89%29.86 "HgN/A
Weather by CustomWeather, © 2014

See weather overviewHow to use our weather pages